Year,Month,Day,Hour,Minute,Value (Times are PST for windgust in km/hr)
2015,10,30,00,00,3.20
2015,10,30,00,01,3.20
2015,10,30,00,02,1.60
2015,10,30,00,03,1.60
2015,10,30,00,04,1.60
2015,10,30,00,06,3.20
2015,10,30,00,07,3.20
2015,10,30,00,08,3.20
2015,10,30,00,09,3.20
2015,10,30,00,10,1.60
2015,10,30,00,11,1.60
2015,10,30,00,12,3.20
2015,10,30,00,13,3.20
2015,10,30,00,14,3.20
2015,10,30,00,15,4.80
2015,10,30,00,16,3.20
2015,10,30,00,17,4.80
2015,10,30,00,18,3.20
2015,10,30,00,19,1.60
2015,10,30,00,21,1.60
2015,10,30,00,22,4.80
2015,10,30,00,23,1.60
2015,10,30,00,28,3.20
2015,10,30,00,29,3.20
2015,10,30,00,31,1.60
2015,10,30,00,32,1.60
2015,10,30,00,34,8.10
2015,10,30,00,35,6.40
2015,10,30,00,36,1.60
2015,10,30,00,39,1.60
2015,10,30,00,40,3.20
2015,10,30,00,41,3.20
2015,10,30,00,50,1.60
2015,10,30,00,51,1.60
2015,10,30,00,52,3.20
2015,10,30,00,53,1.60
2015,10,30,00,54,3.20
2015,10,30,00,55,1.60
2015,10,30,00,59,1.60
2015,10,30,01,00,3.20
2015,10,30,01,01,1.60
2015,10,30,01,04,3.20
2015,10,30,01,09,1.60
2015,10,30,01,13,1.60
2015,10,30,01,14,3.20
2015,10,30,01,16,3.20
2015,10,30,01,20,1.60
2015,10,30,01,21,1.60
2015,10,30,01,23,3.20
2015,10,30,01,27,1.60
2015,10,30,01,30,3.20
2015,10,30,01,31,4.80
2015,10,30,01,32,1.60
2015,10,30,01,33,4.80
2015,10,30,01,34,3.20
2015,10,30,01,35,3.20
2015,10,30,01,40,1.60
2015,10,30,01,44,1.60
2015,10,30,01,46,1.60
2015,10,30,01,51,3.20
2015,10,30,01,52,1.60
2015,10,30,01,53,1.60
2015,10,30,01,54,3.20
2015,10,30,01,55,3.20
2015,10,30,01,57,3.20
2015,10,30,01,58,3.20
2015,10,30,02,00,3.20
2015,10,30,02,01,3.20
2015,10,30,02,02,1.60
2015,10,30,02,03,1.60
2015,10,30,02,05,1.60
2015,10,30,02,06,1.60
2015,10,30,02,07,3.20
2015,10,30,02,08,4.80
2015,10,30,02,09,1.60
2015,10,30,02,10,3.20
2015,10,30,02,11,4.80
2015,10,30,02,12,6.40
2015,10,30,02,13,1.60
2015,10,30,02,14,3.20
2015,10,30,02,15,4.80
2015,10,30,02,16,4.80
2015,10,30,02,17,6.40
2015,10,30,02,18,4.80
2015,10,30,02,19,3.20
2015,10,30,02,20,3.20
2015,10,30,02,23,3.20
2015,10,30,02,24,4.80
2015,10,30,02,25,8.10
2015,10,30,02,26,6.40
2015,10,30,02,27,6.40
2015,10,30,02,28,6.40
2015,10,30,02,29,6.40
2015,10,30,02,30,3.20
2015,10,30,02,31,6.40
2015,10,30,02,32,6.40
2015,10,30,02,33,4.80
2015,10,30,02,34,4.80
2015,10,30,02,35,4.80
2015,10,30,02,36,4.80
2015,10,30,02,38,1.60
2015,10,30,02,39,1.60
2015,10,30,02,40,1.60
2015,10,30,02,41,4.80
2015,10,30,02,42,4.80
2015,10,30,02,43,8.10
2015,10,30,02,44,4.80
2015,10,30,02,45,4.80
2015,10,30,02,46,8.10
2015,10,30,02,47,8.10
2015,10,30,02,48,6.40
2015,10,30,02,49,8.10
2015,10,30,02,50,6.40
2015,10,30,02,51,3.20
2015,10,30,02,52,4.80
2015,10,30,02,53,4.80
2015,10,30,02,54,3.20
2015,10,30,02,55,4.80
2015,10,30,02,56,4.80
2015,10,30,02,57,4.80
2015,10,30,02,58,8.10
2015,10,30,02,59,6.40
2015,10,30,03,00,4.80
2015,10,30,03,01,4.80
2015,10,30,03,02,6.40
2015,10,30,03,03,3.20
2015,10,30,03,04,4.80
2015,10,30,03,05,6.40
2015,10,30,03,06,3.20
2015,10,30,03,07,6.40
2015,10,30,03,08,8.10
2015,10,30,03,09,8.10
2015,10,30,03,10,6.40
2015,10,30,03,11,6.40
2015,10,30,03,12,4.80
2015,10,30,03,13,4.80
2015,10,30,03,14,8.10
2015,10,30,03,15,4.80
2015,10,30,03,16,6.40
2015,10,30,03,17,6.40
2015,10,30,03,18,4.80
2015,10,30,03,19,6.40
2015,10,30,03,20,4.80
2015,10,30,03,21,3.20
2015,10,30,03,22,1.60
2015,10,30,03,23,1.60
2015,10,30,03,24,3.20
2015,10,30,03,25,3.20
2015,10,30,03,26,4.80
2015,10,30,03,27,4.80
2015,10,30,03,28,4.80
2015,10,30,03,29,4.80
2015,10,30,03,30,8.10
2015,10,30,03,31,6.40
2015,10,30,03,32,6.40
2015,10,30,03,33,8.10
2015,10,30,03,34,9.60
2015,10,30,03,35,8.10
2015,10,30,03,36,6.40
2015,10,30,03,37,6.40
2015,10,30,03,38,4.80
2015,10,30,03,39,3.20
2015,10,30,03,40,1.60
2015,10,30,03,41,1.60
2015,10,30,03,42,1.60
2015,10,30,03,43,6.40
2015,10,30,03,44,8.10
2015,10,30,03,45,6.40
2015,10,30,03,46,4.80
2015,10,30,03,47,3.20
2015,10,30,03,48,3.20
2015,10,30,03,49,3.20
2015,10,30,03,50,6.40
2015,10,30,03,51,4.80
2015,10,30,03,52,4.80
2015,10,30,03,53,4.80
2015,10,30,03,54,4.80
2015,10,30,03,55,6.40
2015,10,30,03,56,3.20
2015,10,30,03,57,1.60
2015,10,30,03,58,4.80
2015,10,30,03,59,4.80
2015,10,30,04,00,4.80
2015,10,30,04,01,4.80
2015,10,30,04,02,3.20
2015,10,30,04,03,1.60
2015,10,30,04,06,1.60
2015,10,30,04,07,3.20
2015,10,30,04,08,3.20
2015,10,30,04,10,1.60
2015,10,30,04,11,1.60
2015,10,30,04,12,3.20
2015,10,30,04,13,4.80
2015,10,30,04,14,3.20
2015,10,30,04,16,1.60
2015,10,30,04,17,3.20
2015,10,30,04,18,1.60
2015,10,30,04,19,3.20
2015,10,30,04,20,4.80
2015,10,30,04,21,4.80
2015,10,30,04,22,3.20
2015,10,30,04,23,4.80
2015,10,30,04,24,4.80
2015,10,30,04,25,3.20
2015,10,30,04,26,1.60
2015,10,30,04,27,1.60
2015,10,30,04,28,3.20
2015,10,30,04,29,1.60
2015,10,30,04,32,1.60
2015,10,30,04,33,1.60
2015,10,30,04,34,3.20
2015,10,30,04,35,3.20
2015,10,30,04,36,3.20
2015,10,30,04,37,3.20
2015,10,30,04,38,1.60
2015,10,30,04,39,1.60
2015,10,30,04,40,3.20
2015,10,30,04,41,1.60
2015,10,30,04,43,3.20
2015,10,30,04,44,3.20
2015,10,30,04,45,3.20
2015,10,30,04,46,1.60
2015,10,30,04,47,3.20
2015,10,30,04,48,1.60
2015,10,30,04,49,3.20
2015,10,30,04,50,3.20
2015,10,30,04,51,3.20
2015,10,30,04,52,3.20
2015,10,30,04,53,3.20
2015,10,30,04,54,3.20
2015,10,30,04,55,4.80
2015,10,30,04,56,3.20
2015,10,30,04,57,3.20
2015,10,30,04,58,4.80
2015,10,30,04,59,4.80
2015,10,30,05,00,3.20
2015,10,30,05,01,3.20
2015,10,30,05,02,4.80
2015,10,30,05,03,4.80
2015,10,30,05,04,4.80
2015,10,30,05,05,3.20
2015,10,30,05,06,3.20
2015,10,30,05,07,3.20
2015,10,30,05,09,3.20
2015,10,30,05,10,4.80
2015,10,30,05,11,4.80
2015,10,30,05,12,4.80
2015,10,30,05,13,3.20
2015,10,30,05,14,3.20
2015,10,30,05,15,1.60
2015,10,30,05,16,3.20
2015,10,30,05,17,1.60
2015,10,30,05,18,1.60
2015,10,30,05,19,4.80
2015,10,30,05,20,3.20
2015,10,30,05,21,4.80
2015,10,30,05,22,4.80
2015,10,30,05,23,3.20
2015,10,30,05,24,3.20
2015,10,30,05,25,4.80
2015,10,30,05,26,3.20
2015,10,30,05,27,3.20
2015,10,30,05,28,3.20
2015,10,30,05,29,3.20
2015,10,30,05,30,4.80
2015,10,30,05,31,3.20
2015,10,30,05,32,1.60
2015,10,30,05,33,1.60
2015,10,30,05,34,1.60
2015,10,30,05,35,1.60
2015,10,30,05,36,1.60
2015,10,30,05,37,3.20
2015,10,30,05,38,3.20
2015,10,30,05,39,1.60
2015,10,30,05,40,4.80
2015,10,30,05,41,4.80
2015,10,30,05,42,4.80
2015,10,30,05,43,4.80
2015,10,30,05,44,3.20
2015,10,30,05,45,3.20
2015,10,30,05,46,3.20
2015,10,30,05,47,1.60
2015,10,30,05,48,3.20
2015,10,30,05,49,4.80
2015,10,30,05,50,3.20
2015,10,30,05,51,4.80
2015,10,30,05,52,4.80
2015,10,30,05,53,6.40
2015,10,30,05,54,4.80
2015,10,30,05,55,3.20
2015,10,30,05,57,1.60
2015,10,30,05,58,1.60
2015,10,30,05,59,3.20
2015,10,30,06,00,3.20
2015,10,30,06,01,4.80
2015,10,30,06,02,4.80
2015,10,30,06,03,4.80
2015,10,30,06,04,4.80
2015,10,30,06,05,3.20
2015,10,30,06,06,1.60
2015,10,30,06,07,1.60
2015,10,30,06,09,1.60
2015,10,30,06,10,3.20
2015,10,30,06,11,4.80
2015,10,30,06,12,3.20
2015,10,30,06,13,1.60
2015,10,30,06,19,1.60
2015,10,30,06,20,3.20
2015,10,30,06,21,4.80
2015,10,30,06,22,4.80
2015,10,30,06,23,3.20
2015,10,30,06,24,1.60
2015,10,30,06,26,1.60
2015,10,30,06,27,3.20
2015,10,30,06,30,1.60
2015,10,30,06,31,1.60
2015,10,30,06,33,1.60
2015,10,30,06,34,1.60
2015,10,30,06,36,1.60
2015,10,30,06,37,1.60
2015,10,30,06,38,3.20
2015,10,30,06,39,3.20
2015,10,30,06,40,1.60
2015,10,30,06,41,1.60
2015,10,30,06,42,3.20
2015,10,30,06,43,1.60
2015,10,30,06,44,1.60
2015,10,30,06,46,1.60
2015,10,30,06,47,3.20
2015,10,30,06,48,1.60
2015,10,30,06,50,1.60
2015,10,30,06,51,3.20
2015,10,30,06,52,1.60
2015,10,30,06,53,1.60
2015,10,30,06,54,1.60
2015,10,30,06,55,1.60
2015,10,30,07,01,1.60
2015,10,30,07,02,1.60
2015,10,30,07,03,1.60
2015,10,30,07,04,1.60
2015,10,30,07,05,1.60
2015,10,30,07,06,3.20
2015,10,30,07,07,1.60
2015,10,30,07,10,3.20
2015,10,30,07,11,3.20
2015,10,30,07,12,3.20
2015,10,30,07,13,3.20
2015,10,30,07,14,1.60
2015,10,30,07,15,1.60
2015,10,30,07,16,3.20
2015,10,30,07,17,1.60
2015,10,30,07,18,1.60
2015,10,30,07,19,1.60
2015,10,30,07,20,3.20
2015,10,30,07,21,1.60
2015,10,30,07,22,1.60
2015,10,30,07,23,1.60
2015,10,30,07,24,1.60
2015,10,30,07,25,3.20
2015,10,30,07,26,3.20
2015,10,30,07,28,3.20
2015,10,30,07,29,3.20
2015,10,30,07,31,3.20
2015,10,30,07,32,1.60
2015,10,30,07,33,1.60
2015,10,30,07,34,3.20
2015,10,30,07,35,4.80
2015,10,30,07,36,4.80
2015,10,30,07,37,3.20
2015,10,30,07,38,3.20
2015,10,30,07,39,3.20
2015,10,30,07,40,3.20
2015,10,30,07,41,3.20
2015,10,30,07,42,1.60
2015,10,30,07,44,3.20
2015,10,30,07,45,4.80
2015,10,30,07,46,1.60
2015,10,30,07,47,1.60
2015,10,30,07,48,1.60
2015,10,30,07,49,4.80
2015,10,30,07,50,4.80
2015,10,30,07,51,3.20
2015,10,30,07,52,3.20
2015,10,30,07,53,4.80
2015,10,30,07,54,4.80
2015,10,30,07,55,4.80
2015,10,30,07,56,4.80
2015,10,30,07,57,1.60
2015,10,30,07,58,3.20
2015,10,30,07,59,3.20
2015,10,30,08,00,4.80
2015,10,30,08,01,3.20
2015,10,30,08,02,3.20
2015,10,30,08,03,3.20
2015,10,30,08,04,4.80
2015,10,30,08,05,3.20
2015,10,30,08,06,1.60
2015,10,30,08,07,3.20
2015,10,30,08,08,4.80
2015,10,30,08,09,4.80
2015,10,30,08,10,4.80
2015,10,30,08,11,1.60
2015,10,30,08,12,3.20
2015,10,30,08,13,4.80
2015,10,30,08,14,4.80
2015,10,30,08,15,6.40
2015,10,30,08,16,4.80
2015,10,30,08,17,4.80
2015,10,30,08,18,4.80
2015,10,30,08,19,4.80
2015,10,30,08,20,1.60
2015,10,30,08,21,3.20
2015,10,30,08,22,4.80
2015,10,30,08,23,3.20
2015,10,30,08,24,3.20
2015,10,30,08,25,4.80
2015,10,30,08,26,3.20
2015,10,30,08,27,6.40
2015,10,30,08,28,3.20
2015,10,30,08,29,3.20
2015,10,30,08,30,3.20
2015,10,30,08,31,3.20
2015,10,30,08,32,3.20
2015,10,30,08,33,1.60
2015,10,30,08,34,3.20
2015,10,30,08,35,1.60
2015,10,30,08,36,1.60
2015,10,30,08,37,1.60
2015,10,30,08,38,3.20
2015,10,30,08,39,6.40
2015,10,30,08,40,11.30
2015,10,30,08,41,9.60
2015,10,30,08,42,19.30
2015,10,30,08,43,32.20
2015,10,30,08,44,32.20
2015,10,30,08,45,27.40
2015,10,30,08,46,17.70
2015,10,30,08,47,22.50
2015,10,30,08,48,27.40
2015,10,30,08,49,27.40
2015,10,30,08,50,41.80
2015,10,30,08,51,40.20
2015,10,30,08,52,30.60
2015,10,30,08,53,43.50
2015,10,30,08,54,40.20
2015,10,30,08,55,37.00
2015,10,30,08,56,29.00
2015,10,30,08,57,29.00
2015,10,30,08,58,43.50
2015,10,30,08,59,41.80
2015,10,30,09,00,33.80
2015,10,30,09,01,24.20
2015,10,30,09,02,29.00
2015,10,30,09,03,38.60
2015,10,30,09,04,22.50
2015,10,30,09,05,17.70
2015,10,30,09,06,22.50
2015,10,30,09,07,24.20
2015,10,30,09,08,33.80
2015,10,30,09,09,29.00
2015,10,30,09,10,27.40
2015,10,30,09,11,22.50
2015,10,30,09,12,33.80
2015,10,30,09,13,30.60
2015,10,30,09,14,30.60
2015,10,30,09,15,38.60
2015,10,30,09,16,35.40
2015,10,30,09,17,30.60
2015,10,30,09,18,32.20
2015,10,30,09,19,20.90
2015,10,30,09,20,35.40
2015,10,30,09,21,27.40
2015,10,30,09,22,37.00
2015,10,30,09,23,43.50
2015,10,30,09,24,43.50
2015,10,30,09,25,40.20
2015,10,30,09,26,43.50
2015,10,30,09,27,27.40
2015,10,30,09,28,49.90
2015,10,30,09,29,43.50
2015,10,30,09,30,37.00
2015,10,30,09,31,40.20
2015,10,30,09,32,41.80
2015,10,30,09,33,53.10
2015,10,30,09,34,43.50
2015,10,30,09,35,33.80
2015,10,30,09,36,45.10
2015,10,30,09,37,30.60
2015,10,30,09,38,35.40
2015,10,30,09,39,46.70
2015,10,30,09,40,40.20
2015,10,30,09,41,43.50
2015,10,30,09,42,43.50
2015,10,30,09,43,29.00
2015,10,30,09,44,46.70
2015,10,30,09,45,46.70
2015,10,30,09,46,53.10
2015,10,30,09,47,54.70
2015,10,30,09,48,53.10
2015,10,30,09,49,45.10
2015,10,30,09,50,48.30
2015,10,30,09,51,49.90
2015,10,30,09,52,56.30
2015,10,30,09,53,53.10
2015,10,30,09,54,41.80
2015,10,30,09,55,53.10
2015,10,30,09,56,40.20
2015,10,30,09,57,33.80
2015,10,30,09,58,41.80
2015,10,30,09,59,37.00
2015,10,30,10,00,30.60
2015,10,30,10,01,51.50
2015,10,30,10,02,41.80
2015,10,30,10,03,22.50
2015,10,30,10,04,40.20
2015,10,30,10,05,46.70
2015,10,30,10,06,27.40
2015,10,30,10,07,41.80
2015,10,30,10,08,46.70
2015,10,30,10,09,27.40
2015,10,30,10,10,49.90
2015,10,30,10,11,35.40
2015,10,30,10,12,45.10
2015,10,30,10,13,43.50
2015,10,30,10,14,40.20
2015,10,30,10,15,38.60
2015,10,30,10,16,43.50
2015,10,30,10,17,48.30
2015,10,30,10,18,40.20
2015,10,30,10,19,53.10
2015,10,30,10,20,37.00
2015,10,30,10,21,30.60
2015,10,30,10,22,29.00
2015,10,30,10,23,37.00
2015,10,30,10,24,30.60
2015,10,30,10,25,48.30
2015,10,30,10,26,32.20
2015,10,30,10,27,27.40
2015,10,30,10,28,53.10
2015,10,30,10,29,37.00
2015,10,30,10,30,37.00
2015,10,30,10,31,38.60
2015,10,30,10,32,38.60
2015,10,30,10,33,30.60
2015,10,30,10,34,30.60
2015,10,30,10,35,38.60
2015,10,30,10,36,66.00
2015,10,30,10,37,43.50
2015,10,30,10,38,41.80
2015,10,30,10,39,38.60
2015,10,30,10,40,30.60
2015,10,30,10,41,35.40
2015,10,30,10,42,41.80
2015,10,30,10,43,43.50
2015,10,30,10,44,38.60
2015,10,30,10,45,37.00
2015,10,30,10,46,33.80
2015,10,30,10,47,33.80
2015,10,30,10,48,41.80
2015,10,30,10,49,51.50
2015,10,30,10,50,41.80
2015,10,30,10,51,37.00
2015,10,30,10,52,22.50
2015,10,30,10,53,33.80
2015,10,30,10,54,43.50
2015,10,30,10,55,53.10
2015,10,30,10,56,48.30
2015,10,30,10,57,38.60
2015,10,30,10,58,38.60
2015,10,30,10,59,48.30
2015,10,30,11,00,29.00
2015,10,30,11,01,40.20
2015,10,30,11,02,33.80
2015,10,30,11,03,33.80
2015,10,30,11,04,29.00
2015,10,30,11,05,35.40
2015,10,30,11,06,48.30
2015,10,30,11,07,48.30
2015,10,30,11,08,29.00
2015,10,30,11,09,49.90
2015,10,30,11,10,43.50
2015,10,30,11,11,46.70
2015,10,30,11,12,37.00
2015,10,30,11,13,32.20
2015,10,30,11,14,33.80
2015,10,30,11,15,40.20
2015,10,30,11,16,35.40
2015,10,30,11,17,24.20
2015,10,30,11,18,30.60
2015,10,30,11,19,35.40
2015,10,30,11,20,33.80
2015,10,30,11,21,30.60
2015,10,30,11,22,32.20
2015,10,30,11,23,38.60
2015,10,30,11,24,41.80
2015,10,30,11,25,27.40
2015,10,30,11,26,30.60
2015,10,30,11,27,30.60
2015,10,30,11,28,37.00
2015,10,30,11,29,32.20
2015,10,30,11,30,32.20
2015,10,30,11,31,29.00
2015,10,30,11,32,17.70
2015,10,30,11,33,38.60
2015,10,30,11,34,35.40
2015,10,30,11,35,32.20
2015,10,30,11,36,40.20
2015,10,30,11,37,35.40
2015,10,30,11,38,25.70
2015,10,30,11,39,32.20
2015,10,30,11,40,33.80
2015,10,30,11,41,33.80
2015,10,30,11,42,22.50
2015,10,30,11,43,29.00
2015,10,30,11,44,29.00
2015,10,30,11,45,53.10
2015,10,30,11,46,38.60
2015,10,30,11,47,41.80
2015,10,30,11,48,37.00
2015,10,30,11,49,30.60
2015,10,30,11,50,43.50
2015,10,30,11,51,33.80
2015,10,30,11,52,41.80
2015,10,30,11,53,35.40
2015,10,30,11,54,37.00
2015,10,30,11,55,35.40
2015,10,30,11,56,35.40
2015,10,30,11,57,16.10
2015,10,30,11,58,17.70
2015,10,30,11,59,25.70
2015,10,30,12,00,30.60
2015,10,30,12,01,32.20
2015,10,30,12,02,27.40
2015,10,30,12,03,35.40
2015,10,30,12,04,37.00
2015,10,30,12,05,37.00
2015,10,30,12,06,29.00
2015,10,30,12,07,32.20
2015,10,30,12,08,43.50
2015,10,30,12,09,30.60
2015,10,30,12,10,46.70
2015,10,30,12,11,37.00
2015,10,30,12,12,25.70
2015,10,30,12,13,22.50
2015,10,30,12,14,24.20
2015,10,30,12,15,33.80
2015,10,30,12,16,29.00
2015,10,30,12,17,35.40
2015,10,30,12,18,35.40
2015,10,30,12,19,25.70
2015,10,30,12,20,49.90
2015,10,30,12,21,38.60
2015,10,30,12,22,41.80
2015,10,30,12,23,27.40
2015,10,30,12,24,33.80
2015,10,30,12,25,33.80
2015,10,30,12,26,30.60
2015,10,30,12,27,32.20
2015,10,30,12,28,22.50
2015,10,30,12,29,29.00
2015,10,30,12,30,33.80
2015,10,30,12,31,24.20
2015,10,30,12,32,27.40
2015,10,30,12,33,30.60
2015,10,30,12,34,30.60
2015,10,30,12,35,37.00
2015,10,30,12,36,45.10
2015,10,30,12,37,35.40
2015,10,30,12,38,32.20
2015,10,30,12,39,20.90
2015,10,30,12,40,24.20
2015,10,30,12,41,27.40
2015,10,30,12,42,37.00
2015,10,30,12,43,27.40
2015,10,30,12,44,24.20
2015,10,30,12,45,30.60
2015,10,30,12,46,43.50
2015,10,30,12,47,30.60
2015,10,30,12,48,29.00
2015,10,30,12,49,20.90
2015,10,30,12,50,35.40
2015,10,30,12,51,38.60
2015,10,30,12,52,32.20
2015,10,30,12,53,25.70
2015,10,30,12,54,30.60
2015,10,30,12,55,41.80
2015,10,30,12,56,32.20
2015,10,30,12,57,29.00
2015,10,30,12,58,27.40
2015,10,30,12,59,30.60
2015,10,30,13,00,25.70
2015,10,30,13,01,27.40
2015,10,30,13,02,25.70
2015,10,30,13,03,24.20
2015,10,30,13,04,24.20
2015,10,30,13,05,22.50
2015,10,30,13,06,24.20
2015,10,30,13,07,32.20
2015,10,30,13,08,29.00
2015,10,30,13,09,33.80
2015,10,30,13,10,37.00
2015,10,30,13,11,32.20
2015,10,30,13,12,37.00
2015,10,30,13,13,30.60
2015,10,30,13,14,30.60
2015,10,30,13,15,35.40
2015,10,30,13,16,33.80
2015,10,30,13,17,24.20
2015,10,30,13,18,33.80
2015,10,30,13,19,35.40
2015,10,30,13,20,29.00
2015,10,30,13,21,25.70
2015,10,30,13,22,30.60
2015,10,30,13,23,35.40
2015,10,30,13,24,33.80
2015,10,30,13,25,30.60
2015,10,30,13,26,33.80
2015,10,30,13,27,35.40
2015,10,30,13,28,27.40
2015,10,30,13,29,33.80
2015,10,30,13,30,48.30
2015,10,30,13,31,43.50
2015,10,30,13,32,27.40
2015,10,30,13,33,33.80
2015,10,30,13,34,38.60
2015,10,30,13,35,32.20
2015,10,30,13,36,29.00
2015,10,30,13,37,33.80
2015,10,30,13,38,37.00
2015,10,30,13,39,30.60
2015,10,30,13,40,40.20
2015,10,30,13,41,38.60
2015,10,30,13,42,27.40
2015,10,30,13,43,32.20
2015,10,30,13,44,30.60
2015,10,30,13,45,20.90
2015,10,30,13,46,41.80
2015,10,30,13,47,35.40
2015,10,30,13,48,19.30
2015,10,30,13,49,17.70
2015,10,30,13,50,17.70
2015,10,30,13,51,22.50
2015,10,30,13,52,22.50
2015,10,30,13,53,25.70
2015,10,30,13,54,33.80
2015,10,30,13,55,33.80
2015,10,30,13,56,22.50
2015,10,30,13,57,17.70
2015,10,30,13,58,30.60
2015,10,30,13,59,27.40
2015,10,30,14,00,29.00
2015,10,30,14,01,24.20
2015,10,30,14,02,27.40
2015,10,30,14,03,27.40
2015,10,30,14,04,30.60
2015,10,30,14,05,33.80
2015,10,30,14,06,33.80
2015,10,30,14,07,29.00
2015,10,30,14,08,51.50
2015,10,30,14,09,40.20
2015,10,30,14,10,33.80
2015,10,30,14,11,38.60
2015,10,30,14,12,27.40
2015,10,30,14,13,16.10
2015,10,30,14,14,17.70
2015,10,30,14,15,22.50
2015,10,30,14,16,32.20
2015,10,30,14,17,27.40
2015,10,30,14,18,32.20
2015,10,30,14,19,33.80
2015,10,30,14,20,40.20
2015,10,30,14,21,32.20
2015,10,30,14,22,37.00
2015,10,30,14,23,35.40
2015,10,30,14,24,25.70
2015,10,30,14,25,29.00
2015,10,30,14,26,22.50
2015,10,30,14,27,24.20
2015,10,30,14,28,22.50
2015,10,30,14,29,29.00
2015,10,30,14,30,38.60
2015,10,30,14,31,33.80
2015,10,30,14,32,35.40
2015,10,30,14,33,33.80
2015,10,30,14,34,27.40
2015,10,30,14,35,37.00
2015,10,30,14,36,37.00
2015,10,30,14,37,30.60
2015,10,30,14,38,32.20
2015,10,30,14,39,27.40
2015,10,30,14,40,29.00
2015,10,30,14,41,27.40
2015,10,30,14,42,29.00
2015,10,30,14,43,24.20
2015,10,30,14,44,45.10
2015,10,30,14,45,37.00
2015,10,30,14,46,38.60
2015,10,30,14,47,43.50
2015,10,30,14,48,27.40
2015,10,30,14,49,41.80
2015,10,30,14,50,27.40
2015,10,30,14,51,32.20
2015,10,30,14,52,29.00
2015,10,30,14,53,29.00
2015,10,30,14,54,19.30
2015,10,30,14,55,17.70
2015,10,30,14,56,30.60
2015,10,30,14,57,35.40
2015,10,30,14,58,33.80
2015,10,30,14,59,35.40
2015,10,30,15,00,30.60
2015,10,30,15,01,33.80
2015,10,30,15,02,35.40
2015,10,30,15,03,35.40
2015,10,30,15,04,33.80
2015,10,30,15,05,24.20
2015,10,30,15,06,19.30
2015,10,30,15,07,25.70
2015,10,30,15,08,14.50
2015,10,30,15,09,17.70
2015,10,30,15,10,24.20
2015,10,30,15,11,16.10
2015,10,30,15,12,19.30
2015,10,30,15,13,22.50
2015,10,30,15,14,27.40
2015,10,30,15,15,20.90
2015,10,30,15,16,24.20
2015,10,30,15,17,29.00
2015,10,30,15,18,16.10
2015,10,30,15,19,24.20
2015,10,30,15,20,29.00
2015,10,30,15,21,24.20
2015,10,30,15,22,17.70
2015,10,30,15,23,24.20
2015,10,30,15,24,22.50
2015,10,30,15,25,27.40
2015,10,30,15,26,19.30
2015,10,30,15,27,20.90
2015,10,30,15,28,24.20
2015,10,30,15,29,22.50
2015,10,30,15,30,17.70
2015,10,30,15,31,25.70
2015,10,30,15,32,17.70
2015,10,30,15,33,22.50
2015,10,30,15,34,29.00
2015,10,30,15,35,25.70
2015,10,30,15,36,22.50
2015,10,30,15,37,11.30
2015,10,30,15,38,17.70
2015,10,30,15,39,22.50
2015,10,30,15,40,17.70
2015,10,30,15,41,16.10
2015,10,30,15,42,24.20
2015,10,30,15,43,27.40
2015,10,30,15,44,16.10
2015,10,30,15,45,30.60
2015,10,30,15,46,27.40
2015,10,30,15,47,24.20
2015,10,30,15,48,32.20
2015,10,30,15,49,25.70
2015,10,30,15,50,11.30
2015,10,30,15,51,8.10
2015,10,30,15,52,19.30
2015,10,30,15,53,19.30
2015,10,30,15,54,11.30
2015,10,30,15,55,16.10
2015,10,30,15,56,17.70
2015,10,30,15,57,17.70
2015,10,30,15,58,8.10
2015,10,30,15,59,9.60
2015,10,30,16,00,12.90
2015,10,30,16,01,14.50
2015,10,30,16,02,9.60
2015,10,30,16,03,14.50
2015,10,30,16,04,16.10
2015,10,30,16,05,6.40
2015,10,30,16,06,8.10
2015,10,30,16,07,6.40
2015,10,30,16,08,14.50
2015,10,30,16,09,11.30
2015,10,30,16,10,4.80
2015,10,30,16,11,11.30
2015,10,30,16,12,19.30
2015,10,30,16,13,11.30
2015,10,30,16,14,14.50
2015,10,30,16,15,22.50
2015,10,30,16,16,14.50
2015,10,30,16,17,9.60
2015,10,30,16,18,11.30
2015,10,30,16,19,9.60
2015,10,30,16,20,11.30
2015,10,30,16,21,20.90
2015,10,30,16,22,9.60
2015,10,30,16,23,9.60
2015,10,30,16,24,16.10
2015,10,30,16,25,19.30
2015,10,30,16,26,24.20
2015,10,30,16,27,22.50
2015,10,30,16,28,8.10
2015,10,30,16,29,4.80
2015,10,30,16,30,16.10
2015,10,30,16,31,11.30
2015,10,30,16,32,20.90
2015,10,30,16,33,16.10
2015,10,30,16,34,16.10
2015,10,30,16,35,6.40
2015,10,30,16,36,9.60
2015,10,30,16,37,8.10
2015,10,30,16,38,11.30
2015,10,30,16,39,14.50
2015,10,30,16,40,14.50
2015,10,30,16,41,12.90
2015,10,30,16,42,17.70
2015,10,30,16,43,14.50
2015,10,30,16,44,16.10
2015,10,30,16,45,8.10
2015,10,30,16,46,11.30
2015,10,30,16,47,19.30
2015,10,30,16,48,20.90
2015,10,30,16,49,17.70
2015,10,30,16,50,25.70
2015,10,30,16,51,32.20
2015,10,30,16,52,20.90
2015,10,30,16,53,17.70
2015,10,30,16,54,12.90
2015,10,30,16,55,19.30
2015,10,30,16,56,14.50
2015,10,30,16,57,12.90
2015,10,30,16,58,24.20
2015,10,30,16,59,20.90
2015,10,30,17,00,17.70
2015,10,30,17,01,11.30
2015,10,30,17,02,8.10
2015,10,30,17,03,6.40
2015,10,30,17,04,4.80
2015,10,30,17,05,4.80
2015,10,30,17,06,11.30
2015,10,30,17,07,14.50
2015,10,30,17,08,16.10
2015,10,30,17,09,14.50
2015,10,30,17,10,14.50
2015,10,30,17,11,9.60
2015,10,30,17,12,8.10
2015,10,30,17,13,8.10
2015,10,30,17,14,14.50
2015,10,30,17,15,16.10
2015,10,30,17,16,14.50
2015,10,30,17,17,11.30
2015,10,30,17,18,14.50
2015,10,30,17,19,12.90
2015,10,30,17,20,19.30
2015,10,30,17,21,16.10
2015,10,30,17,22,12.90
2015,10,30,17,23,16.10
2015,10,30,17,24,16.10
2015,10,30,17,25,11.30
2015,10,30,17,26,14.50
2015,10,30,17,27,8.10
2015,10,30,17,28,16.10
2015,10,30,17,29,24.20
2015,10,30,17,30,9.60
2015,10,30,17,31,17.70
2015,10,30,17,32,16.10
2015,10,30,17,33,14.50
2015,10,30,17,34,12.90
2015,10,30,17,35,9.60
2015,10,30,17,36,16.10
2015,10,30,17,37,14.50
2015,10,30,17,38,17.70
2015,10,30,17,39,17.70
2015,10,30,17,40,11.30
2015,10,30,17,41,14.50
2015,10,30,17,42,8.10
2015,10,30,17,43,16.10
2015,10,30,17,44,9.60
2015,10,30,17,45,6.40
2015,10,30,17,46,9.60
2015,10,30,17,47,14.50
2015,10,30,17,48,4.80
2015,10,30,17,49,8.10
2015,10,30,17,50,4.80
2015,10,30,17,51,12.90
2015,10,30,17,52,14.50
2015,10,30,17,53,8.10
2015,10,30,17,54,3.20
2015,10,30,17,55,6.40
2015,10,30,17,56,6.40
2015,10,30,17,57,16.10
2015,10,30,17,58,11.30
2015,10,30,17,59,8.10
2015,10,30,18,00,9.60
2015,10,30,18,01,8.10
2015,10,30,18,02,9.60
2015,10,30,18,03,17.70
2015,10,30,18,04,17.70
2015,10,30,18,05,16.10
2015,10,30,18,06,14.50
2015,10,30,18,07,16.10
2015,10,30,18,08,11.30
2015,10,30,18,09,14.50
2015,10,30,18,10,16.10
2015,10,30,18,11,11.30
2015,10,30,18,12,14.50
2015,10,30,18,13,14.50
2015,10,30,18,14,8.10
2015,10,30,18,15,8.10
2015,10,30,18,16,9.60
2015,10,30,18,17,8.10
2015,10,30,18,18,8.10
2015,10,30,18,19,14.50
2015,10,30,18,20,12.90
2015,10,30,18,21,12.90
2015,10,30,18,22,11.30
2015,10,30,18,23,11.30
2015,10,30,18,24,14.50
2015,10,30,18,25,9.60
2015,10,30,18,26,14.50
2015,10,30,18,27,8.10
2015,10,30,18,28,16.10
2015,10,30,18,29,12.90
2015,10,30,18,30,12.90
2015,10,30,18,31,6.40
2015,10,30,18,32,9.60
2015,10,30,18,33,8.10
2015,10,30,18,34,8.10
2015,10,30,18,35,8.10
2015,10,30,18,36,14.50
2015,10,30,18,37,9.60
2015,10,30,18,38,8.10
2015,10,30,18,39,8.10
2015,10,30,18,40,11.30
2015,10,30,18,41,11.30
2015,10,30,18,42,9.60
2015,10,30,18,43,16.10
2015,10,30,18,44,8.10
2015,10,30,18,45,9.60
2015,10,30,18,46,14.50
2015,10,30,18,47,14.50
2015,10,30,18,48,11.30
2015,10,30,18,49,11.30
2015,10,30,18,50,9.60
2015,10,30,18,51,6.40
2015,10,30,18,52,8.10
2015,10,30,18,53,11.30
2015,10,30,18,54,14.50
2015,10,30,18,55,9.60
2015,10,30,18,56,12.90
2015,10,30,18,57,11.30
2015,10,30,18,58,14.50
2015,10,30,18,59,14.50
2015,10,30,19,00,12.90
2015,10,30,19,01,17.70
2015,10,30,19,02,11.30
2015,10,30,19,03,8.10
2015,10,30,19,04,14.50
2015,10,30,19,05,11.30
2015,10,30,19,06,12.90
2015,10,30,19,07,11.30
2015,10,30,19,08,19.30
2015,10,30,19,09,12.90
2015,10,30,19,10,16.10
2015,10,30,19,11,14.50